QPF
0.03 0.02 0.01 0.01 0.01 0.00 0.00 0.00 0.00 0.00 0.01 0.01 0.01 0.01 0.02 0.01 0.01 0.01 0.01 0.02 0.01 0.01 0.01 0.01 0.01 0.00 0.00 0.00 0.00 0.00 0.00 0.00 0.00 0.00 0.00 0.00 0.00 0.01 0.01 0.00 0.00 0.00 0.01
0.02 0.02 0.02 0.01 0.01 0.01 0.01 0.01 0.00 0.00 0.00 0.01 0.01 0.01 0.01 0.01 0.01 0.02 0.02 0.01 0.01 0.02 0.01 0.01 0.02 0.01 0.00 0.00 0.00 0.00 0.00 0.00 0.00 0.00 0.00 0.00 0.00 0.01 0.00 0.01 0.01 0.01 0.01
0.02 0.02 0.02 0.02 0.01 0.01 0.01 0.01 0.00 0.00 0.01 0.01 0.01 0.01 0.02 0.02 0.02 0.02 0.02 0.02 0.02 0.02 0.01 0.01 0.02 0.02 0.01 0.00 0.00 0.00 0.00 0.00 0.00 0.00 0.00 0.00 0.01 0.01 0.01 0.01 0.02 0.02 0.01
0.01 0.02 0.02 0.02 0.01 0.01 0.01 0.01 0.01 0.01 0.01 0.02 0.01 0.01 0.02 0.04 0.04 0.03 0.02 0.02 0.02 0.02 0.01 0.01 0.01 0.02 0.01 0.00 0.00 0.00 0.00 0.00 0.00 0.00 0.00 0.01 0.02 0.03 0.02 0.01 0.01 0.02 0.01
0.01 0.01 0.02 0.02 0.01 0.01 0.01 0.01 0.01 0.01 0.01 0.02 0.02 0.02 0.02 0.03 0.02 0.02 0.01 0.01 0.02 0.01 0.01 0.01 0.01 0.01 0.01 0.00 0.00 0.00 0.00 0.00 0.00 0.00 0.00 0.01 0.03 0.04 0.02 0.01 0.01 0.02 0.02
0.01 0.01 0.02 0.02 0.02 0.01 0.01 0.02 0.01 0.01 0.02 0.02 0.02 0.02 0.02 0.02 0.01 0.01 0.01 0.01 0.01 0.01 0.01 0.01 0.01 0.01 0.01 0.00 0.00 0.00 0.00 0.00 0.00 0.00 0.01 0.01 0.03 0.04 0.02 0.01 0.01 0.02 0.02
0.01 0.01 0.02 0.03 0.03 0.02 0.01 0.01 0.02 0.02 0.02 0.02 0.02 0.02 0.03 0.02 0.01 0.01 0.01 0.01 0.01 0.01 0.01 0.01 0.01 0.01 0.01 0.01 0.00 0.00 0.00 0.00 0.00 0.00 0.00 0.01 0.02 0.03 0.01 0.01 0.02 0.02 0.02
0.01 0.01 0.02 0.03 0.03 0.02 0.02 0.01 0.02 0.02 0.02 0.03 0.02 0.02 0.02 0.02 0.01 0.01 0.01 0.01 0.01 0.01 0.01 0.00 0.01 0.01 0.01 0.01 0.00 0.00 0.00 0.00 0.00 0.00 0.00 0.00 0.02 0.02 0.01 0.01 0.01 0.01 0.01
0.01 0.01 0.01 0.02 0.03 0.03 0.02 0.01 0.01 0.02 0.03 0.04 0.02 0.02 0.02 0.02 0.02 0.01 0.01 0.01 0.01 0.01 0.01 0.01 0.01 0.01 0.01 0.01 0.01 0.00 0.00 0.00 0.00 0.00 0.00 0.00 0.01 0.01 0.01 0.00 0.01 0.01 0.01
0.01 0.01 0.02 0.03 0.03 0.03 0.02 0.02 0.01 0.01 0.02 0.03 0.03 0.01 0.01 0.01 0.01 0.01 0.01 0.00 0.01 0.01 0.01 0.01 0.01 0.00 0.01 0.01 0.01 0.00 0.00 0.00 0.00 0.00 0.00 0.00 0.01 0.01 0.01 0.01 0.01 0.01 0.01
0.01 0.01 0.02 0.03 0.04 0.03 0.03 0.03 0.02 0.01 0.01 0.02 0.02 0.01 0.01 0.01 0.01 0.01 0.01 0.01 0.01 0.01 0.01 0.01 0.01 0.00 0.00 0.01 0.00 0.00 0.00 0.00 0.00 0.00 0.00 0.01 0.01 0.01 0.01 0.01 0.01 0.01 0.01
0.00 0.01 0.01 0.03 0.04 0.03 0.03 0.04 0.03 0.02 0.01 0.01 0.02 0.01 0.01 0.01 0.00 0.00 0.01 0.01 0.01 0.01 0.01 0.01 0.00 0.01 0.01 0.00 0.00 0.00 0.00 0.00 0.00 0.00 0.00 0.01 0.01 0.01 0.01 0.01 0.01 0.01 0.01
0.00 0.00 0.01 0.02 0.03 0.04 0.03 0.04 0.03 0.02 0.01 0.01 0.02 0.02 0.01 0.01 0.00 0.00 0.00 0.01 0.01 0.01 0.01 0.00 0.00 0.01 0.00 0.00 0.00 0.00 0.00 0.00 0.00 0.00 0.00 0.01 0.02 0.01 0.01 0.01 0.01 0.01 0.01
0.00 0.00 0.01 0.01 0.02 0.03 0.04 0.04 0.03 0.02 0.02 0.01 0.02 0.02 0.02 0.01 0.00 0.01 0.00 0.00 0.00 0.00 0.00 0.00 0.00 0.01 0.01 0.00 0.00 0.00 0.00 0.00 0.00 0.01 0.01 0.02 0.02 0.02 0.01 0.01 0.00 0.01 0.01
0.00 0.01 0.01 0.01 0.02 0.02 0.04 0.05 0.04 0.02 0.02 0.02 0.02 0.02 0.01 0.01 0.00 0.00 0.01 0.00 0.00 0.00 0.00 0.00 0.00 0.00 0.01 0.01 0.00 0.00 0.00 0.00 0.00 0.00 0.01 0.01 0.01 0.02 0.02 0.01 0.01 0.01 0.01
0.00 0.00 0.01 0.01 0.01 0.01 0.02 0.02 0.02 0.03 0.03 0.02 0.02 0.02 0.02 0.02 0.01 0.00 0.01 0.01 0.00 0.00 0.00 0.00 0.00 0.00 0.01 0.01 0.01 0.01 0.02 0.02 0.01 0.00 0.01 0.01 0.02 0.02 0.03 0.02 0.01 0.01 0.01
0.00 0.00 0.00 0.01 0.01 0.01 0.01 0.01 0.01 0.01 0.03 0.03 0.02 0.02 0.03 0.03 0.02 0.01 0.01 0.01 0.01 0.01 0.00 0.00 0.01 0.00 0.01 0.01 0.01 0.01 0.02 0.03 0.02 0.01 0.01 0.01 0.02 0.02 0.03 0.03 0.02 0.01 0.01
0.00 0.00 0.00 0.00 0.01 0.01 0.01 0.01 0.01 0.01 0.01 0.01 0.02 0.01 0.01 0.03 0.03 0.03 0.01 0.01 0.01 0.01 0.01 0.01 0.01 0.01 0.00 0.01 0.01 0.01 0.01 0.02 0.02 0.02 0.01 0.01 0.02 0.02 0.03 0.04 0.03 0.01 0.01
0.00 0.00 0.00 0.00 0.00 0.01 0.01 0.01 0.01 0.01 0.01 0.01 0.00 0.00 0.00 0.01 0.02 0.03 0.02 0.02 0.02 0.02 0.02 0.01 0.01 0.01 0.00 0.00 0.00 0.01 0.01 0.02 0.02 0.02 0.02 0.02 0.03 0.04 0.05 0.06 0.03 0.01 0.01
0.00 0.00 0.00 0.00 0.00 0.00 0.01 0.01 0.01 0.01 0.01 0.01 0.01 0.01 0.01 0.01 0.01 0.01 0.02 0.03 0.02 0.02 0.02 0.02 0.01 0.01 0.01 0.00 0.00 0.01 0.01 0.01 0.02 0.02 0.02 0.02 0.03 0.04 0.05 0.06 0.05 0.03 0.02
0.00 0.00 0.00 0.00 0.00 0.00 0.01 0.01 0.01 0.01 0.01 0.01 0.01 0.01 0.01 0.01 0.01 0.01 0.01 0.03 0.04 0.03 0.01 0.01 0.01 0.01 0.00 0.00 0.00 0.00 0.01 0.01 0.01 0.01 0.01 0.02 0.03 0.05 0.05 0.05 0.05 0.03 0.02
0.00 0.00 0.00 0.00 0.00 0.00 0.00 0.01 0.01 0.01 0.01 0.01 0.01 0.01 0.01 0.01 0.01 0.01 0.01 0.01 0.03 0.04 0.04 0.02 0.01 0.01 0.00 0.00 0.00 0.00 0.00 0.00 0.01 0.01 0.01 0.02 0.02 0.04 0.06 0.06 0.05 0.03 0.02
0.00 0.00 0.00 0.00 0.00 0.00 0.00 0.00 0.01 0.01 0.01 0.01 0.02 0.01 0.01 0.01 0.02 0.02 0.01 0.01 0.01 0.02 0.03 0.04 0.03 0.01 0.00 0.00 0.00 0.00 0.00 0.00 0.00 0.00 0.01 0.02 0.02 0.02 0.04 0.05 0.05 0.03 0.03
0.00 0.00 0.00 0.00 0.00 0.00 0.00 0.00 0.00 0.01 0.01 0.01 0.01 0.01 0.01 0.01 0.01 0.02 0.02 0.01 0.01 0.01 0.01 0.02 0.02 0.02 0.02 0.01 0.00 0.00 0.00 0.00 0.01 0.00 0.00 0.01 0.02 0.02 0.03 0.03 0.04 0.04 0.04
0.00 0.00 0.00 0.00 0.00 0.00 0.00 0.00 0.00 0.00 0.01 0.00 0.01 0.01 0.01 0.01 0.01 0.02 0.02 0.02 0.01 0.01 0.01 0.01 0.01 0.01 0.01 0.01 0.01 0.00 0.00 0.00 0.00 0.00 0.00 0.00 0.01 0.01 0.02 0.02 0.02 0.02 0.02
0.00 0.00 0.00 0.00 0.00 0.00 0.00 0.00 0.00 0.01 0.01 0.01 0.01 0.01 0.01 0.01 0.01 0.01 0.02 0.01 0.01 0.01 0.01 0.01 0.01 0.01 0.01 0.00 0.00 0.01 0.01 0.01 0.00 0.00 0.00 0.00 0.00 0.00 0.01 0.01 0.01 0.01 0.01
MSLP
1013.06 1012.89 1012.85 1012.98 1013.25 1013.63 1014.06 1014.46 1014.80 1015.05 1015.23 1015.36 1015.51 1015.71 1015.97 1016.30 1016.66 1017.00 1017.29 1017.49 1017.60 1017.65 1017.67 1017.71 1017.78 1017.91 1018.10 1018.31 1018.51 1018.69 1018.82 1018.90 1018.94 1018.98 1019.01 1019.06 1019.13 1019.22 1019.29 1019.34 1019.35 1019.34 1019.30
1012.74 1012.65 1012.70 1012.90 1013.25 1013.68 1014.15 1014.58 1014.94 1015.21 1015.40 1015.55 1015.72 1015.95 1016.24 1016.59 1016.97 1017.33 1017.62 1017.82 1017.94 1017.98 1018.00 1018.02 1018.08 1018.20 1018.36 1018.55 1018.73 1018.90 1019.02 1019.12 1019.19 1019.26 1019.33 1019.42 1019.53 1019.63 1019.72 1019.77 1019.79 1019.77 1019.73
1012.31 1012.31 1012.44 1012.73 1013.15 1013.66 1014.19 1014.68 1015.07 1015.36 1015.58 1015.76 1015.94 1016.18 1016.48 1016.84 1017.21 1017.56 1017.85 1018.05 1018.16 1018.21 1018.23 1018.25 1018.31 1018.42 1018.57 1018.74 1018.92 1019.08 1019.21 1019.33 1019.43 1019.54 1019.66 1019.80 1019.94 1020.06 1020.16 1020.22 1020.24 1020.23 1020.19
1011.85 1011.92 1012.13 1012.50 1013.02 1013.60 1014.20 1014.74 1015.18 1015.51 1015.75 1015.94 1016.14 1016.38 1016.67 1017.01 1017.36 1017.69 1017.96 1018.15 1018.26 1018.32 1018.35 1018.40 1018.47 1018.59 1018.75 1018.93 1019.11 1019.28 1019.43 1019.57 1019.71 1019.86 1020.02 1020.19 1020.35 1020.49 1020.59 1020.65 1020.68 1020.67 1020.65
1011.45 1011.57 1011.84 1012.29 1012.88 1013.53 1014.19 1014.77 1015.25 1015.62 1015.88 1016.09 1016.30 1016.53 1016.80 1017.11 1017.43 1017.73 1017.97 1018.15 1018.27 1018.35 1018.42 1018.50 1018.61 1018.77 1018.95 1019.15 1019.35 1019.54 1019.72 1019.89 1020.06 1020.23 1020.42 1020.60 1020.77 1020.91 1021.01 1021.06 1021.09 1021.09 1021.09
1011.19 1011.34 1011.66 1012.15 1012.78 1013.48 1014.17 1014.78 1015.29 1015.68 1015.97 1016.19 1016.41 1016.64 1016.90 1017.18 1017.47 1017.73 1017.95 1018.12 1018.25 1018.36 1018.47 1018.60 1018.77 1018.98 1019.21 1019.45 1019.68 1019.90 1020.10 1020.29 1020.48 1020.67 1020.86 1021.04 1021.20 1021.32 1021.41 1021.45 1021.47 1021.48 1021.49
1011.10 1011.26 1011.61 1012.13 1012.77 1013.47 1014.16 1014.78 1015.29 1015.69 1016.00 1016.25 1016.48 1016.72 1016.98 1017.25 1017.52 1017.76 1017.97 1018.13 1018.27 1018.41 1018.57 1018.76 1018.99 1019.26 1019.55 1019.84 1020.11 1020.36 1020.58 1020.78 1020.97 1021.16 1021.34 1021.51 1021.65 1021.75 1021.81 1021.83 1021.84 1021.85 1021.88
1011.18 1011.36 1011.71 1012.22 1012.84 1013.50 1014.16 1014.75 1015.25 1015.65 1015.98 1016.26 1016.54 1016.81 1017.10 1017.38 1017.65 1017.88 1018.08 1018.24 1018.39 1018.56 1018.76 1019.00 1019.30 1019.63 1019.97 1020.30 1020.61 1020.88 1021.12 1021.33 1021.51 1021.69 1021.86 1022.00 1022.11 1022.18 1022.22 1022.23 1022.23 1022.24 1022.27
1011.40 1011.59 1011.93 1012.40 1012.97 1013.57 1014.16 1014.70 1015.16 1015.57 1015.92 1016.26 1016.59 1016.92 1017.26 1017.58 1017.86 1018.10 1018.30 1018.47 1018.63 1018.81 1019.04 1019.33 1019.67 1020.05 1020.44 1020.81 1021.14 1021.43 1021.68 1021.88 1022.06 1022.22 1022.36 1022.49 1022.58 1022.64 1022.67 1022.67 1022.66 1022.67 1022.70
1011.69 1011.89 1012.21 1012.63 1013.12 1013.64 1014.14 1014.62 1015.04 1015.45 1015.83 1016.23 1016.63 1017.05 1017.45 1017.83 1018.15 1018.41 1018.62 1018.79 1018.95 1019.15 1019.40 1019.71 1020.08 1020.49 1020.91 1021.31 1021.66 1021.96 1022.20 1022.40 1022.57 1022.72 1022.85 1022.96 1023.04 1023.10 1023.13 1023.14 1023.14 1023.15 1023.19
1011.96 1012.17 1012.47 1012.85 1013.26 1013.68 1014.10 1014.50 1014.89 1015.29 1015.72 1016.18 1016.66 1017.17 1017.65 1018.09 1018.46 1018.75 1018.96 1019.14 1019.31 1019.51 1019.77 1020.10 1020.49 1020.92 1021.35 1021.77 1022.13 1022.43 1022.67 1022.87 1023.02 1023.16 1023.28 1023.39 1023.48 1023.55 1023.60 1023.63 1023.66 1023.68 1023.72
1012.14 1012.38 1012.67 1012.99 1013.33 1013.66 1014.00 1014.34 1014.70 1015.10 1015.57 1016.09 1016.66 1017.24 1017.80 1018.30 1018.71 1019.03 1019.27 1019.46 1019.64 1019.85 1020.11 1020.45 1020.86 1021.30 1021.75 1022.18 1022.54 1022.85 1023.09 1023.27 1023.42 1023.54 1023.66 1023.77 1023.87 1023.97 1024.05 1024.12 1024.18 1024.23 1024.28
1012.20 1012.46 1012.74 1013.03 1013.31 1013.58 1013.85 1014.14 1014.49 1014.90 1015.40 1015.98 1016.60 1017.24 1017.86 1018.41 1018.86 1019.21 1019.47 1019.68 1019.88 1020.11 1020.39 1020.75 1021.17 1021.64 1022.10 1022.54 1022.92 1023.22 1023.46 1023.63 1023.77 1023.88 1023.99 1024.10 1024.22 1024.34 1024.46 1024.57 1024.67 1024.75 1024.83
1012.11 1012.40 1012.69 1012.95 1013.19 1013.42 1013.66 1013.94 1014.28 1014.70 1015.22 1015.83 1016.49 1017.17 1017.81 1018.38 1018.86 1019.24 1019.53 1019.78 1020.01 1020.27 1020.59 1020.99 1021.44 1021.93 1022.43 1022.89 1023.28 1023.60 1023.84 1024.01 1024.13 1024.22 1024.32 1024.42 1024.54 1024.67 1024.81 1024.95 1025.09 1025.22 1025.33
1011.88 1012.20 1012.50 1012.76 1012.99 1013.22 1013.46 1013.74 1014.09 1014.53 1015.06 1015.68 1016.34 1017.02 1017.66 1018.24 1018.73 1019.13 1019.46 1019.74 1020.03 1020.35 1020.72 1021.17 1021.67 1022.21 1022.74 1023.24 1023.66 1024.00 1024.25 1024.42 1024.53 1024.61 1024.67 1024.75 1024.84 1024.97 1025.11 1025.28 1025.45 1025.61 1025.76
1011.55 1011.89 1012.21 1012.49 1012.74 1013.00 1013.26 1013.58 1013.96 1014.41 1014.95 1015.55 1016.19 1016.83 1017.44 1018.00 1018.49 1018.91 1019.27 1019.61 1019.96 1020.35 1020.80 1021.31 1021.88 1022.47 1023.06 1023.60 1024.08 1024.46 1024.73 1024.91 1025.02 1025.07 1025.10 1025.13 1025.18 1025.27 1025.39 1025.55 1025.73 1025.92 1026.10
1011.14 1011.51 1011.85 1012.17 1012.48 1012.78 1013.11 1013.47 1013.89 1014.37 1014.90 1015.47 1016.06 1016.65 1017.22 1017.74 1018.21 1018.64 1019.04 1019.44 1019.86 1020.32 1020.84 1021.42 1022.06 1022.71 1023.36 1023.97 1024.50 1024.94 1025.26 1025.48 1025.59 1025.63 1025.62 1025.60 1025.59 1025.62 1025.69 1025.82 1025.98 1026.18 1026.38
1010.69 1011.08 1011.46 1011.84 1012.21 1012.59 1012.99 1013.43 1013.90 1014.39 1014.91 1015.45 1015.99 1016.51 1017.02 1017.50 1017.95 1018.39 1018.83 1019.28 1019.76 1020.29 1020.87 1021.51 1022.20 1022.91 1023.62 1024.29 1024.90 1025.41 1025.80 1026.07 1026.21 1026.25 1026.22 1026.15 1026.08 1026.04 1026.04 1026.11 1026.25 1026.43 1026.63
1010.21 1010.64 1011.06 1011.50 1011.95 1012.42 1012.91 1013.42 1013.95 1014.47 1014.98 1015.48 1015.96 1016.43 1016.88 1017.32 1017.75 1018.20 1018.66 1019.15 1019.68 1020.25 1020.87 1021.55 1022.27 1023.02 1023.78 1024.52 1025.20 1025.80 1026.28 1026.63 1026.83 1026.91 1026.88 1026.78 1026.66 1026.54 1026.48 1026.48 1026.56 1026.70 1026.89
1009.71 1010.17 1010.64 1011.15 1011.68 1012.25 1012.83 1013.43 1014.01 1014.56 1015.07 1015.54 1015.98 1016.39 1016.79 1017.20 1017.63 1018.08 1018.56 1019.07 1019.62 1020.21 1020.84 1021.52 1022.24 1023.01 1023.80 1024.60 1025.36 1026.05 1026.64 1027.09 1027.38 1027.52 1027.53 1027.43 1027.28 1027.11 1026.98 1026.92 1026.93 1027.02 1027.17
1009.18 1009.67 1010.20 1010.78 1011.39 1012.05 1012.72 1013.39 1014.03 1014.61 1015.13 1015.58 1015.99 1016.37 1016.74 1017.13 1017.55 1018.01 1018.50 1019.03 1019.58 1020.15 1020.76 1021.41 1022.11 1022.87 1023.67 1024.50 1025.33 1026.11 1026.81 1027.38 1027.79 1028.02 1028.09 1028.03 1027.88 1027.70 1027.52 1027.40 1027.35 1027.39 1027.49
1008.60 1009.14 1009.72 1010.36 1011.06 1011.80 1012.55 1013.29 1013.97 1014.59 1015.12 1015.57 1015.96 1016.33 1016.69 1017.08 1017.51 1017.97 1018.47 1018.99 1019.52 1020.07 1020.63 1021.23 1021.88 1022.59 1023.38 1024.23 1025.11 1025.97 1026.78 1027.46 1028.00 1028.34 1028.50 1028.51 1028.40 1028.22 1028.03 1027.88 1027.79 1027.77 1027.83
1007.97 1008.56 1009.20 1009.90 1010.67 1011.48 1012.30 1013.09 1013.82 1014.46 1015.01 1015.47 1015.87 1016.24 1016.61 1017.01 1017.44 1017.92 1018.42 1018.93 1019.44 1019.95 1020.46 1020.99 1021.58 1022.23 1022.99 1023.83 1024.73 1025.65 1026.54 1027.33 1027.97 1028.43 1028.70 1028.79 1028.74 1028.61 1028.44 1028.28 1028.17 1028.12 1028.14
1007.31 1007.94 1008.64 1009.40 1010.22 1011.09 1011.96 1012.80 1013.56 1014.23 1014.80 1015.28 1015.69 1016.08 1016.46 1016.88 1017.34 1017.83 1018.34 1018.84 1019.33 1019.80 1020.25 1020.73 1021.25 1021.85 1022.55 1023.37 1024.26 1025.21 1026.14 1026.99 1027.72 1028.27 1028.64 1028.82 1028.85 1028.78 1028.66 1028.54 1028.43 1028.38 1028.38
1006.66 1007.33 1008.07 1008.88 1009.75 1010.66 1011.58 1012.45 1013.24 1013.94 1014.52 1015.02 1015.45 1015.86 1016.27 1016.71 1017.18 1017.69 1018.21 1018.71 1019.19 1019.63 1020.05 1020.48 1020.95 1021.49 1022.15 1022.91 1023.78 1024.70 1025.64 1026.51 1027.28 1027.89 1028.33 1028.60 1028.72 1028.73 1028.68 1028.60 1028.54 1028.51 1028.51
1006.07 1006.77 1007.54 1008.39 1009.30 1010.24 1011.18 1012.08 1012.89 1013.61 1014.22 1014.73 1015.18 1015.60 1016.03 1016.49 1016.99 1017.51 1018.04 1018.55 1019.03 1019.46 1019.87 1020.28 1020.71 1021.22 1021.82 1022.53 1023.33 1024.21 1025.09 1025.95 1026.71 1027.34 1027.82 1028.15 1028.35 1028.44 1028.48 1028.48 1028.48 1028.50 1028.53
Thickness
5724 5726 5726 5724 5724 5724 5723 5723 5722 5722 5722 5721 5721 5721 5721 5721 5721 5720 5720 5720 5720 5720 5720 5720 5720 5719 5719 5719 5718 5718 5717 5717 5716 5716 5715 5715 5715 5714 5714 5713 5712 5712 5712
5726 5725 5724 5722 5721 5721 5720 5720 5720 5719 5719 5718 5718 5718 5718 5718 5718 5717 5717 5717 5717 5717 5717 5717 5716 5716 5716 5715 5715 5714 5714 5713 5712 5712 5712 5711 5711 5711 5711 5710 5709 5709 5708
5723 5722 5721 5719 5718 5717 5717 5717 5717 5716 5716 5715 5715 5715 5715 5715 5714 5714 5714 5714 5714 5714 5713 5713 5713 5712 5712 5712 5712 5711 5711 5710 5709 5708 5708 5708 5708 5708 5707 5706 5706 5706 5705
5720 5719 5717 5716 5715 5714 5714 5713 5713 5713 5712 5712 5711 5711 5711 5711 5711 5711 5711 5711 5710 5710 5710 5709 5709 5709 5708 5708 5708 5708 5707 5706 5706 5705 5705 5705 5704 5704 5704 5703 5702 5702 5702
5716 5715 5713 5712 5711 5710 5710 5710 5709 5709 5708 5708 5708 5708 5707 5707 5707 5707 5707 5707 5707 5706 5706 5705 5705 5705 5705 5705 5705 5704 5704 5703 5702 5702 5702 5701 5701 5701 5700 5699 5699 5698 5698
5711 5710 5709 5708 5707 5706 5706 5705 5705 5705 5704 5704 5704 5704 5704 5704 5704 5703 5703 5703 5702 5702 5702 5701 5701 5701 5701 5701 5701 5700 5700 5699 5699 5698 5698 5697 5697 5697 5696 5695 5695 5694 5694
5705 5705 5704 5703 5703 5702 5702 5701 5701 5701 5700 5700 5700 5699 5699 5699 5699 5699 5699 5698 5698 5698 5697 5697 5697 5696 5696 5696 5696 5696 5695 5695 5695 5694 5694 5693 5693 5693 5692 5691 5691 5690 5689
5699 5699 5699 5698 5698 5698 5697 5697 5697 5696 5696 5696 5695 5695 5695 5695 5695 5694 5694 5694 5693 5693 5693 5692 5692 5692 5692 5691 5691 5691 5691 5691 5690 5689 5689 5689 5689 5688 5688 5687 5686 5686 5685
5693 5693 5693 5693 5693 5692 5692 5692 5692 5692 5691 5691 5691 5690 5690 5689 5690 5689 5689 5689 5689 5688 5688 5687 5687 5687 5687 5686 5686 5686 5686 5685 5685 5684 5684 5684 5684 5684 5683 5682 5681 5681 5680
5685 5686 5686 5687 5687 5687 5687 5687 5687 5686 5686 5686 5685 5685 5684 5684 5684 5684 5684 5684 5684 5683 5683 5683 5682 5682 5681 5681 5681 5681 5680 5680 5680 5679 5679 5679 5679 5679 5678 5677 5676 5676 5675
5676 5677 5679 5680 5680 5681 5681 5681 5681 5681 5680 5680 5680 5679 5679 5678 5678 5678 5678 5678 5678 5678 5678 5677 5677 5677 5676 5675 5675 5675 5675 5675 5674 5674 5674 5674 5674 5673 5673 5672 5671 5671 5670
5667 5669 5671 5673 5674 5675 5675 5675 5675 5675 5674 5674 5674 5674 5673 5672 5672 5672 5672 5672 5672 5672 5672 5671 5671 5671 5671 5670 5670 5670 5669 5669 5668 5668 5668 5668 5668 5668 5667 5666 5666 5665 5664
5661 5663 5664 5666 5667 5668 5669 5669 5669 5668 5668 5668 5668 5667 5667 5666 5665 5665 5665 5665 5665 5665 5665 5665 5665 5665 5664 5664 5664 5663 5663 5662 5662 5662 5662 5662 5662 5662 5661 5660 5660 5659 5658
5653 5655 5657 5659 5660 5661 5662 5662 5662 5662 5662 5662 5661 5661 5661 5659 5659 5658 5658 5658 5658 5658 5659 5659 5658 5658 5658 5657 5657 5657 5656 5656 5655 5655 5655 5656 5656 5655 5655 5654 5654 5653 5652
5646 5648 5650 5651 5652 5653 5654 5654 5655 5656 5656 5655 5655 5655 5655 5654 5652 5652 5651 5651 5651 5651 5652 5651 5651 5651 5651 5650 5650 5650 5649 5649 5648 5648 5648 5648 5648 5648 5648 5647 5647 5646 5646
5639 5640 5642 5643 5645 5646 5646 5647 5647 5648 5648 5648 5648 5648 5648 5648 5647 5646 5645 5644 5644 5645 5645 5644 5644 5644 5644 5643 5642 5642 5642 5641 5640 5640 5640 5640 5640 5640 5640 5640 5640 5639 5638
5632 5632 5633 5635 5636 5637 5638 5639 5639 5640 5641 5641 5641 5641 5641 5641 5641 5640 5639 5638 5638 5638 5638 5637 5637 5636 5636 5635 5634 5633 5633 5633 5633 5632 5633 5632 5632 5632 5632 5632 5632 5631 5631
5624 5624 5625 5627 5627 5628 5629 5630 5631 5632 5632 5633 5633 5634 5634 5634 5634 5634 5633 5632 5631 5631 5631 5630 5629 5628 5626 5626 5625 5624 5624 5624 5624 5624 5624 5624 5624 5623 5623 5623 5623 5623 5623
5616 5617 5617 5618 5618 5619 5620 5621 5622 5623 5624 5625 5625 5626 5627 5627 5627 5627 5626 5625 5625 5624 5623 5623 5621 5620 5618 5616 5615 5615 5614 5615 5615 5614 5614 5614 5614 5614 5614 5614 5614 5614 5614
5607 5608 5609 5609 5609 5610 5610 5611 5612 5613 5615 5616 5617 5618 5619 5620 5620 5619 5618 5618 5617 5617 5616 5615 5613 5612 5610 5609 5607 5604 5604 5604 5605 5605 5605 5605 5605 5605 5605 5605 5604 5605 5605
5597 5598 5599 5600 5600 5601 5601 5601 5602 5603 5605 5607 5608 5610 5611 5612 5612 5612 5611 5610 5610 5609 5608 5607 5605 5603 5600 5599 5596 5593 5592 5593 5594 5594 5595 5595 5595 5595 5595 5595 5595 5595 5595
5587 5588 5590 5591 5591 5592 5594 5594 5595 5596 5597 5599 5600 5601 5602 5603 5604 5604 5603 5603 5602 5601 5600 5599 5598 5594 5592 5592 5589 5584 5581 5581 5583 5584 5584 5585 5585 5585 5585 5585 5586 5586 5586
5575 5577 5580 5581 5582 5583 5584 5584 5585 5585 5586 5588 5589 5592 5594 5595 5595 5595 5595 5594 5594 5594 5593 5592 5591 5589 5585 5583 5583 5580 5575 5573 5571 5572 5573 5574 5574 5575 5575 5576 5576 5576 5577
5563 5566 5568 5570 5572 5573 5574 5575 5576 5577 5578 5580 5581 5583 5585 5586 5587 5587 5587 5586 5586 5586 5585 5584 5583 5582 5580 5576 5574 5573 5572 5569 5564 5562 5563 5563 5564 5564 5565 5566 5566 5566 5567
5551 5554 5557 5559 5561 5562 5564 5566 5567 5568 5570 5571 5572 5573 5575 5576 5577 5578 5578 5578 5578 5577 5577 5576 5575 5575 5573 5571 5568 5566 5563 5561 5559 5557 5555 5553 5553 5554 5555 5556 5556 5556 5556
5538 5541 5545 5547 5549 5551 5554 5555 5557 5559 5560 5561 5562 5564 5565 5567 5568 5568 5569 5569 5569 5569 5569 5568 5567 5566 5565 5564 5562 5561 5559 5556 5552 5550 5547 5545 5543 5544 5545 5546 5546 5547 5547